Theta_e
286 287 288 289 291 292 291 291 291 291 293 292 292 293 293 292 293 292 291 291 289 289 289 288 287 288 288 288 287 287 286 287 289 290 288 287 282 281 281 281 282 280 281
284 285 286 287 288 288 288 288 289 288 288 287 287 287 288 288 288 287 285 285 284 284 284 283 283 285 283 284 284 283 283 284 284 283 284 283 279 278 278 277 279 279 279
284 284 284 285 285 285 285 286 286 286 285 285 284 284 284 285 285 285 284 283 282 282 282 282 281 282 281 281 281 281 281 283 282 282 280 281 280 277 277 277 277 277 279
282 282 282 282 283 283 284 284 284 284 283 282 282 282 283 283 283 283 283 281 281 281 281 281 281 280 280 280 279 279 280 279 279 278 278 278 276 277 276 274 274 276 276
279 279 279 280 281 281 281 281 281 281 281 281 281 281 282 283 283 282 282 281 280 279 280 280 280 280 284 282 279 279 278 277 277 276 275 275 274 274 273 275 274 274 275
278 278 279 279 279 279 279 279 279 279 279 279 279 280 280 283 285 284 282 280 280 279 279 279 279 279 280 282 281 282 280 277 276 275 274 273 273 274 275 274 273 272 270
277 277 277 277 277 277 278 278 277 277 278 278 279 279 279 281 283 283 281 279 278 279 279 278 279 279 278 278 279 279 279 280 279 276 274 273 273 275 275 274 273 272 271
275 276 276 276 276 276 276 276 276 276 276 277 277 278 279 280 282 281 280 278 278 278 278 278 278 278 279 277 277 276 277 277 277 277 276 276 276 277 276 274 272 271 270
274 274 275 275 275 275 275 274 275 275 275 276 277 277 277 279 281 281 279 278 276 276 277 277 277 277 280 279 276 275 275 275 278 278 277 277 277 277 277 272 264 263 260
273 273 274 275 275 274 275 275 275 276 275 276 275 275 275 276 281 280 279 278 276 276 276 277 278 277 280 280 275 274 273 274 274 273 273 273 274 274 275 273 271 261 262
273 273 273 273 273 273 273 274 274 274 274 273 273 272 273 273 276 280 279 277 276 276 275 275 276 278 279 279 278 274 274 275 271 269 269 269 270 271 271 271 271 269 264
271 270 271 271 272 272 271 271 272 271 270 270 270 270 271 272 275 277 278 278 277 275 274 274 275 278 278 278 276 277 277 271 264 262 262 264 267 267 269 268 268 267 268
270 269 268 269 272 271 269 269 268 269 268 268 269 267 268 271 271 275 276 276 276 274 274 275 276 276 276 273 274 274 269 265 263 260 262 265 267 268 265 263 262 262 262
266 267 267 267 268 269 270 270 269 269 268 269 269 267 266 268 269 270 272 272 273 273 274 271 273 274 273 272 268 268 268 267 265 263 263 264 262 259 257 260 259 261 257
266 266 266 266 266 266 268 267 268 268 269 265 264 266 262 263 268 272 273 270 269 272 265 262 263 264 263 263 262 262 264 262 261 261 258 257 260 260 261 259 258 255 256
265 265 265 265 264 265 265 264 270 271 273 273 273 269 270 271 273 274 275 276 277 277 260 258 260 262 262 262 261 261 261 260 261 260 257 257 259 260 260 260 258 254 256
265 266 265 265 264 263 262 262 260 265 272 273 273 273 274 273 274 275 275 276 276 273 257 256 258 260 260 261 260 259 258 260 257 256 255 256 257 257 256 258 258 257 258
260 263 263 263 262 261 261 261 260 258 258 259 267 271 272 273 274 275 275 272 259 259 253 254 255 257 258 258 258 257 257 256 255 255 255 254 251 251 252 254 256 255 257
260 260 261 260 260 260 260 258 257 255 255 254 254 263 264 271 272 273 273 257 255 253 252 253 255 256 257 256 256 255 254 254 253 251 250 250 250 249 253 253 255 256 257
257 260 259 259 257 257 257 258 257 255 255 253 253 254 254 255 254 254 253 252 253 256 257 256 257 255 255 255 254 254 253 252 252 252 253 252 251 250 253 253 254 255 256
257 256 258 256 256 256 256 257 256 254 254 254 256 257 265 257 258 257 257 257 257 257 258 257 257 256 255 254 253 252 252 255 253 253 253 253 250 251 252 253 255 255 256
256 256 254 255 256 256 255 255 255 254 256 256 258 254 268 261 257 259 259 259 259 258 259 257 258 257 257 256 255 254 254 255 254 253 254 253 251 251 250 252 253 254 255
256 256 255 254 255 254 254 254 254 255 256 256 257 257 253 257 258 259 260 261 259 259 258 256 257 258 258 258 257 257 256 257 257 254 253 253 252 251 250 252 252 253 254
257 257 256 255 254 254 254 254 255 255 256 256 255 257 258 258 258 259 260 260 260 260 259 258 259 259 261 260 258 257 257 258 255 255 253 253 254 252 250 251 252 252 254
254 255 255 256 255 255 255 255 255 256 256 257 258 258 258 258 259 260 261 261 261 261 261 260 260 260 259 259 260 258 257 260 258 255 253 252 254 254 253 253 253 253 254
253 253 254 253 253 253 254 256 256 257 257 258 258 259 259 260 260 261 261 261 261 262 262 262 261 259 260 260 261 260 259 260 257 258 255 254 254 255 254 253 252 253 254
Wind_Speed
8 8 9 9 8 10 10 9 9 10 8 9 10 8 6 9 11 9 10 8 10 9 8 9 9 8 6 5 5 4 4 3 2 2 3 5 5 6 7 6 6 6 6
6 7 9 9 10 11 11 11 10 10 10 9 12 9 7 11 9 9 9 8 9 9 9 9 8 6 7 6 5 6 4 4 3 2 3 4 5 7 5 6 7 8 5
7 8 9 9 10 11 11 10 10 10 9 12 9 11 10 8 9 9 10 10 10 10 9 9 7 7 7 4 5 4 4 4 3 3 3 3 3 5 4 4 7 7 6
8 9 10 9 9 10 10 10 10 10 11 10 10 9 9 9 9 8 9 10 10 9 9 8 7 7 6 5 6 5 5 4 4 4 3 3 3 2 3 6 7 7 7
8 8 8 8 8 9 10 9 9 10 9 9 9 8 7 8 6 7 8 8 8 8 8 8 8 8 12 10 5 5 5 4 4 4 3 2 3 4 6 5 4 7 7
7 7 7 7 8 8 8 8 9 9 8 8 9 8 7 6 14 13 9 7 7 7 8 7 7 7 9 12 11 11 9 5 6 3 2 3 4 4 4 5 5 5 5
7 6 6 7 7 7 7 8 8 8 8 8 8 7 7 7 13 13 12 6 7 6 6 5 6 6 6 5 8 9 9 12 10 5 5 5 5 5 5 6 7 6 5
6 6 5 6 6 6 7 7 7 6 7 6 7 6 6 6 11 11 11 7 6 7 6 5 6 5 6 6 5 5 4 4 5 4 3 3 3 4 4 4 6 6 8
5 5 4 4 5 5 6 5 4 6 6 6 6 6 6 5 8 8 7 5 6 5 5 4 4 4 7 7 4 4 4 4 5 9 8 8 8 8 8 3 3 4 4
4 3 4 4 4 5 4 4 3 4 5 5 6 5 6 6 8 8 6 3 4 4 3 3 4 3 6 7 3 3 3 3 4 5 6 7 8 7 9 6 4 1 2
5 4 3 3 4 4 3 2 3 4 5 5 5 4 4 5 5 7 7 4 3 3 2 1 2 6 7 7 7 3 4 3 5 3 3 4 3 4 3 4 5 4 2
5 5 3 2 1 3 4 2 3 4 5 3 3 3 2 3 3 4 4 5 4 2 1 2 3 8 8 9 7 9 9 5 2 3 2 2 3 2 2 4 5 5 4
5 5 3 2 2 3 4 3 3 3 3 3 3 2 1 1 2 4 5 5 5 3 2 4 6 7 8 6 8 9 5 2 1 1 2 2 2 3 4 4 3 5 7
5 5 3 3 3 1 1 2 3 3 3 3 3 2 1 1 0 1 2 2 4 3 5 3 4 4 6 4 3 4 2 1 1 2 2 2 2 3 2 2 3 3 3
4 3 4 3 3 3 2 2 2 1 3 2 2 3 2 2 3 4 4 3 3 5 2 2 1 1 1 2 2 2 2 2 2 2 2 3 3 2 3 1 2 2 2
6 5 4 4 3 4 3 1 2 4 6 6 7 5 2 6 6 6 6 6 8 8 4 1 1 1 2 2 2 2 2 2 2 2 2 2 4 4 5 4 2 2 4
7 7 4 4 3 3 2 2 2 2 6 8 7 8 8 7 8 7 7 8 9 4 2 2 2 2 3 3 3 2 2 2 2 3 2 3 3 4 3 4 4 3 5
3 4 4 3 3 3 3 3 2 3 2 2 4 5 7 8 9 8 8 6 3 3 1 3 3 4 4 4 3 3 3 3 3 3 3 3 2 3 3 4 4 4 5
4 2 3 3 2 3 3 2 2 2 2 3 3 4 4 6 8 8 7 3 3 3 3 4 4 4 4 4 4 4 4 4 3 3 3 3 3 2 4 4 6 8 7
2 5 4 3 2 2 2 3 2 2 2 1 2 3 3 1 1 2 2 3 4 5 4 5 5 5 5 5 4 4 4 4 4 4 5 4 3 3 5 5 5 7 7
4 3 5 3 3 4 3 4 3 3 3 4 5 5 11 5 5 5 4 4 5 5 5 5 5 5 5 4 4 4 5 6 4 5 5 5 3 4 5 5 6 7 7
4 4 3 4 3 3 4 3 3 3 4 5 5 4 14 4 4 5 6 6 6 7 6 5 6 6 6 6 6 6 7 7 6 5 6 5 4 5 4 4 5 7 7
4 4 4 3 3 3 2 3 4 4 5 5 5 5 3 5 6 7 8 7 6 6 5 6 7 7 6 7 7 8 8 8 8 5 6 5 5 5 4 6 5 6 6
5 6 6 5 4 5 5 5 5 6 6 6 5 6 7 7 7 9 8 7 7 7 7 6 7 10 8 7 7 7 8 8 5 7 8 6 7 5 4 5 6 7 8
5 5 6 6 5 6 5 6 6 6 6 6 7 7 7 7 8 9 8 7 7 7 9 7 7 10 12 14 13 10 11 14 10 8 6 7 9 9 7 6 7 7 9
5 6 6 5 6 5 6 6 6 6 7 7 7 8 8 8 9 9 8 8 9 9 10 8 9 12 13 11 12 13 12 14 12 13 8 7 8 8 7 9 8 7 10
Wind_Direction
42 43 52 51 59 55 64 62 64 51 47 66 72 71 44 66 61 68 73 64 75 68 60 68 62 52 52 43 37 29 36 16 23 82 69 35 49 28 17 10 9 22 352
45 50 58 59 57 65 65 59 59 64 49 61 62 56 55 63 55 68 72 64 71 67 59 63 55 57 50 37 39 34 34 24 29 17 47 31 63 18 18 11 4 6 337
57 61 59 60 65 66 66 66 65 66 58 53 54 54 55 60 70 69 76 74 70 67 63 64 53 57 55 42 46 39 23 33 18 45 22 20 29 28 355 356 354 352 343
57 62 59 54 59 64 66 68 68 64 65 58 52 50 49 51 57 64 72 75 74 71 66 64 61 56 63 58 50 35 34 44 31 48 37 31 28 4 355 354 349 345 332
60 62 60 58 59 62 63 64 66 64 60 61 63 53 50 61 62 63 71 79 82 77 67 64 54 37 64 65 59 47 43 49 40 44 40 18 14 4 4 339 332 327 316
63 62 58 61 65 66 67 68 70 70 65 62 57 52 51 65 76 79 77 81 80 85 84 69 61 49 45 61 57 61 67 55 55 47 36 23 6 352 338 345 340 347 335
73 62 61 65 67 61 68 72 69 68 69 63 55 54 51 66 76 78 78 72 78 75 82 77 71 59 45 37 48 55 46 50 55 53 22 13 343 346 338 344 352 340 301
66 69 62 71 74 69 74 75 72 68 68 72 61 47 55 75 85 89 88 80 75 68 67 64 62 37 57 40 30 47 47 54 44 37 31 336 344 349 344 13 343 321 289
67 58 62 80 87 80 81 85 85 91 84 78 70 54 50 52 78 85 86 85 90 82 81 62 57 31 39 47 38 13 13 17 11 15 8 3 0 357 8 26 349 5 313
89 66 46 61 83 87 86 89 85 103 109 106 99 66 53 30 65 79 71 80 99 102 92 68 43 7 24 16 86 13 339 331 4 5 360 355 359 357 15 20 357 346 321
114 112 92 83 96 99 100 95 104 97 94 88 96 79 66 38 31 68 78 73 78 68 63 47 358 346 341 352 42 350 300 37 4 14 349 333 337 344 348 352 340 317 247
121 106 94 48 103 110 105 59 87 108 108 95 99 79 63 55 66 57 67 83 87 94 51 335 314 345 336 353 1 328 343 34 29 4 350 312 314 301 306 319 299 279 261
135 140 145 107 112 133 123 124 96 105 128 141 139 128 155 53 16 54 43 29 10 64 336 306 333 335 348 355 341 335 25 4 341 349 290 271 258 302 305 304 288 280 277
144 156 146 132 163 127 92 145 145 155 139 153 156 149 102 43 305 309 315 332 322 322 299 322 290 344 351 3 4 352 329 329 265 251 252 265 312 314 297 261 294 309 309
147 165 177 176 174 144 145 173 148 131 146 152 169 147 151 236 238 234 255 238 238 247 119 46 8 334 321 320 324 308 302 333 332 291 301 296 282 270 284 264 266 309 244
172 182 191 179 184 169 164 117 241 180 196 190 187 176 223 230 246 265 274 296 298 308 60 119 294 273 271 273 271 264 256 252 261 262 261 251 278 292 294 298 235 224 268
186 183 180 184 180 166 146 156 166 306 242 219 222 228 224 228 249 268 278 287 300 325 103 243 238 249 265 268 262 239 249 245 255 268 272 276 275 277 290 289 294 269 287
168 170 163 169 179 152 171 174 155 169 202 276 304 243 248 251 259 272 278 331 358 8 196 219 242 235 240 241 246 241 251 257 243 250 255 252 247 257 294 287 278 266 281
185 179 169 173 168 168 162 154 164 159 197 228 332 310 324 286 277 271 287 161 203 237 231 240 234 248 249 243 248 247 243 257 248 259 258 247 245 214 274 261 274 281 283
187 180 165 163 149 142 153 170 186 207 230 246 257 241 285 36 308 251 242 215 225 241 237 242 245 234 237 235 242 242 256 258 260 254 261 254 252 226 256 266 266 274 280
179 176 168 154 172 183 186 202 195 184 218 229 238 218 229 208 238 232 240 229 233 241 244 234 245 240 236 236 234 239 240 256 238 243 248 251 227 254 236 246 269 275 277
167 174 169 187 181 198 211 193 201 210 229 240 258 250 263 267 257 254 253 249 237 232 235 236 248 236 228 219 222 225 237 244 237 225 246 246 229 241 246 255 260 273 278
170 179 194 203 202 204 221 223 223 227 243 244 255 266 231 247 250 251 255 256 250 249 231 222 239 252 233 230 219 218 225 237 231 198 226 234 234 238 221 252 250 268 273
184 193 201 208 198 212 220 227 228 232 237 243 235 242 248 248 246 250 251 254 249 250 241 232 235 245 257 241 228 222 228 234 205 212 207 223 245 232 223 240 253 255 265
183 195 203 211 209 217 221 230 233 239 241 243 251 247 251 248 254 257 257 251 252 252 253 236 234 243 242 246 246 230 229 235 223 205 205 212 233 234 233 242 251 259 262
187 196 205 195 213 213 221 237 240 236 239 241 240 242 244 248 251 255 257 251 251 251 252 251 245 240 247 251 249 245 237 235 230 223 204 210 226 234 230 237 239 246 261